Location: *
(46.4000°N, 12.6667°E)
Time: 20:01:42
(UTC+00:00)

CZ-4C R/B - Pass Details

Date: 23 June 2021
Orbit: 606 x 1396 km, 63.4° (Epoch: 28 July)

Event Time Altitude Azimuth Distance (km) Brightness Sun altitude
Exits shadow 01:03:30 18° 167° (SSE) 1,680 3.3 -15.7°
Maximum altitude 01:06:22 33° 115° (ESE) 1,257 3.1 -15.5°
Drops below altitude 10° 01:11:20 10° 53° (NE) 2,489 5.7 -15.1°
Sets 01:14:17 0° 44° (NE) 3,570 7.0 -14.8°
